Middlesboro, KY

11:17 PM EST on February 11, 2016 (GMT -0500)
Middlesboro

Weather History for K1A6 - July, 2013

Change the Weather History Date:

Sunday, July 7, 2013

  Actual Average (KLOZ) Record (KLOZ)
Temperature  
Mean Temperature 71 °F 76 °F  
Max Temperature 77 °F 87 °F 99 °F (2012)
Min Temperature 65 °F 66 °F 46 °F (1972)
Degree Days  
Heating Degree Days 0 0  
Month to date heating degree days 0  
Since 1 June heating degree days 9  
Since 1 July heating degree days 0  
Cooling Degree Days 6 11  
Month to date cooling degree days 77  
Year to date cooling degree days 434  
Since 1 June cooling degree days 320  
Growing Degree Days 21 (Base 50)    
Moisture  
Dew Point 67 °F    
Average Humidity 91    
Maximum Humidity 100    
Minimum Humidity 71    
Precipitation  
Precipitation 1.60 in 0.13 in 1.56 in (2013)
Month to date precipitation 0.94  
Year to date precipitation 25.87  
Sea Level Pressure  
Sea Level Pressure 30.16 in    
Wind  
Wind Speed 1 mph (South)    
Max Wind Speed 9 mph    
Max Gust Speed -    
Visibility 8 miles    
Events Rain    
T = Trace of Precipitation, MM = Missing Value Source: NWS Daily Summary

Daily Weather History Graph

Daily Weather History Graph

Search for Another Location

Airport or City:

Trip Planner

Search our weather history database for the weather conditions in past years. The results will help you decide how hot, cold, wet, or windy it might be!

Date:

Astronomy

Jul. 07, 2013 Rise Set
Actual Time 5:23 AM CDT 7:56 PM CDT
Civil Twilight 4:53 AM CDT 8:26 PM CDT
Nautical Twilight 4:15 AM CDT 9:03 PM CDT
Astronomical Twilight 3:33 AM CDT 9:45 PM CDT
Moon 4:56 AM CDT (7/7) 7:21 PM CDT (7/7)
Length of Visible Light 15h 33m
Length of Day
14h 32m
Waning Crescent, 0% of the Moon is Illuminated
Jul 7
Waning Crescent
Jul 8
New
Jul 15
First Quarter
Jul 22
Full
Jul 29
Last Quarter

Hourly Weather History & Observations

Time (CDT) Temp. Dew Point Humidity Pressure Visibility Wind Dir Wind Speed Gust Speed Precip Events Conditions
12:15 AM 66.4 °F 66.2 °F 99% 30.17 in 10.0 mi Calm Calm - 0.01 in Rain Light Rain
12:35 AM 66.6 °F 66.2 °F 99% 30.16 in 7.0 mi Calm Calm - 0.03 in Rain Rain
12:55 AM 66.4 °F 66.2 °F 99% 30.16 in 10.0 mi Calm Calm - 0.04 in Rain Rain
1:15 AM 66.6 °F 66.4 °F 99% 30.15 in 10.0 mi Calm Calm - N/A   Light Drizzle
1:35 AM 67.1 °F 65.8 °F 96% 30.13 in 10.0 mi Calm Calm - 0.01 in Rain Light Rain
1:55 AM 66.6 °F 66.2 °F 99% 30.15 in 2.0 mi Calm Calm - 0.18 in Rain Heavy Rain
2:15 AM 66.7 °F 66.4 °F 99% 30.14 in 10.0 mi Calm Calm - 0.02 in Rain Light Rain
2:35 AM 66.6 °F 66.4 °F 99% 30.13 in 10.0 mi Calm Calm - 0.02 in   Mostly Cloudy
2:55 AM 66.6 °F 66.4 °F 99% 30.13 in 10.0 mi Calm Calm - 0.02 in   Overcast
3:15 AM 66.6 °F 66.4 °F 99% 30.13 in 10.0 mi Calm Calm - N/A   Light Drizzle
3:35 AM 66.6 °F 66.4 °F 99% 30.13 in 5.0 mi Calm Calm - 0.04 in Rain Rain
3:55 AM 66.4 °F 66.2 °F 99% 30.13 in 4.0 mi Calm Calm - 0.08 in Rain Light Rain
4:15 AM 66.6 °F 66.4 °F 99% 30.13 in 7.0 mi Calm Calm - 0.01 in Rain Light Rain
4:35 AM 66.6 °F 66.6 °F 100% 30.13 in 7.0 mi Calm Calm - 0.02 in Rain Light Rain
4:55 AM 66.9 °F 66.7 °F 99% 30.13 in 7.0 mi Calm Calm - 0.04 in Rain Light Rain
5:15 AM 66.7 °F 66.7 °F 100% 30.14 in 3.0 mi Calm Calm - 0.06 in Rain Heavy Rain
5:35 AM 66.7 °F 66.7 °F 100% 30.14 in 2.0 mi Calm Calm - 0.21 in Rain Heavy Rain
5:55 AM 66.7 °F 66.7 °F 100% 30.15 in 1.5 mi Calm Calm - 0.46 in Rain Heavy Rain
6:15 AM 66.7 °F 66.7 °F 100% 30.15 in 1.0 mi Calm Calm - 0.13 in Rain Rain
6:35 AM 66.7 °F 66.7 °F 100% 30.15 in 2.5 mi Calm Calm - 0.20 in Rain Rain
6:55 AM 66.9 °F 66.9 °F 100% 30.16 in 2.0 mi Calm Calm - 0.28 in Rain Heavy Rain
7:15 AM 66.7 °F 66.7 °F 100% 30.15 in 4.0 mi Calm Calm - 0.05 in Rain Rain
7:35 AM 66.9 °F 66.7 °F 99% 30.16 in 1.8 mi Calm Calm - 0.12 in Rain Rain
7:55 AM 67.1 °F 66.7 °F 99% 30.17 in 2.5 mi Calm Calm - 0.18 in Rain Rain
8:15 AM 67.1 °F 67.1 °F 100% 30.17 in 1.8 mi Calm Calm - 0.08 in Rain Rain
8:35 AM 67.1 °F 67.1 °F 100% 30.19 in 1.2 mi Calm Calm - 0.18 in Rain Heavy Rain
8:55 AM 67.1 °F 67.1 °F 100% 30.19 in 3.0 mi Calm Calm - 0.23 in Rain Rain
9:15 AM 67.3 °F 67.1 °F 99% 30.19 in 7.0 mi Calm Calm - 0.02 in Rain Rain
9:35 AM 67.6 °F 67.5 °F 99% 30.18 in 7.0 mi Calm Calm - 0.06 in Rain Rain
9:55 AM 68.0 °F 68.0 °F 100% 30.18 in 7.0 mi Calm Calm - 0.09 in Rain Light Rain
10:15 AM 68.7 °F 68.2 °F 98% 30.18 in 10.0 mi Calm Calm - N/A   Overcast
10:35 AM 70.2 °F 68.7 °F 95% 30.18 in 10.0 mi Calm Calm - N/A   Overcast
10:55 AM 70.5 °F 68.5 °F 93% 30.18 in 10.0 mi Calm Calm - N/A   Overcast
11:15 AM 71.4 °F 69.4 °F 93% 30.19 in 10.0 mi Calm Calm - N/A Rain Light Rain
11:35 AM 71.6 °F 69.3 °F 92% 30.19 in 10.0 mi Calm Calm - N/A   Overcast
11:55 AM 72.0 °F 69.3 °F 91% 30.19 in 10.0 mi Calm Calm - N/A   Overcast
12:15 PM 73.0 °F 68.9 °F 87% 30.19 in 10.0 mi Calm Calm - N/A   Overcast
12:35 PM 74.3 °F 69.6 °F 85% 30.18 in 10.0 mi Calm Calm - N/A   Overcast
12:55 PM 75.9 °F 68.9 °F 79% 30.17 in 10.0 mi Calm Calm - N/A   Mostly Cloudy
1:15 PM 77.0 °F 68.4 °F 75% 30.17 in 10.0 mi Calm Calm - N/A   Mostly Cloudy
1:35 PM 76.8 °F 67.1 °F 72% 30.17 in 10.0 mi Calm Calm - N/A   Overcast
1:55 PM 77.2 °F 67.3 °F 71% 30.16 in 10.0 mi South 3.5 mph - N/A   Overcast
2:15 PM 77.5 °F 68.4 °F 73% 30.15 in 10.0 mi South 5.8 mph - N/A   Overcast
2:35 PM 77.4 °F 68.4 °F 74% 30.15 in 10.0 mi South 3.5 mph - N/A   Overcast
2:55 PM 76.5 °F 68.5 °F 76% 30.14 in 10.0 mi South 6.9 mph - N/A   Overcast
3:15 PM 76.5 °F 68.7 °F 77% 30.14 in 10.0 mi South 3.5 mph - N/A   Overcast
3:35 PM 76.5 °F 68.9 °F 77% 30.14 in 10.0 mi South 5.8 mph - N/A   Overcast
3:55 PM 75.7 °F 68.9 °F 79% 30.14 in 10.0 mi South 6.9 mph - N/A   Overcast
4:15 PM 77.0 °F 68.7 °F 75% 30.14 in 10.0 mi South 9.2 mph - N/A   Overcast
4:35 PM 77.5 °F 68.9 °F 75% 30.13 in 10.0 mi SSW 5.8 mph - N/A   Mostly Cloudy
4:55 PM 77.4 °F 68.9 °F 75% 30.12 in 10.0 mi South 5.8 mph - N/A   Mostly Cloudy
5:15 PM 77.2 °F 68.9 °F 76% 30.12 in 10.0 mi South 8.1 mph - N/A   Mostly Cloudy
5:35 PM 76.6 °F 68.4 °F 75% 30.12 in 10.0 mi South 5.8 mph - N/A   Mostly Cloudy
5:55 PM 76.5 °F 68.7 °F 77% 30.12 in 10.0 mi South 5.8 mph - N/A   Scattered Clouds
6:15 PM 76.1 °F 68.7 °F 78% 30.12 in 10.0 mi South 6.9 mph - N/A   Clear
6:35 PM 75.2 °F 68.0 °F 78% 30.13 in 10.0 mi South 5.8 mph - N/A   Clear
6:55 PM 74.7 °F 68.2 °F 80% 30.13 in 10.0 mi South 5.8 mph - N/A   Clear
7:15 PM 73.8 °F 67.8 °F 82% 30.14 in 10.0 mi South 6.9 mph - N/A   Clear
7:35 PM 72.7 °F 67.6 °F 84% 30.14 in 10.0 mi Calm Calm - N/A   Clear
7:55 PM 72.0 °F 67.5 °F 86% 30.15 in 10.0 mi Calm Calm - N/A   Clear
8:15 PM 71.8 °F 66.9 °F 85% 30.16 in 10.0 mi South 3.5 mph - N/A   Clear
8:35 PM 70.9 °F 66.9 °F 87% 30.17 in 10.0 mi Calm Calm - N/A   Clear
8:55 PM 70.2 °F 67.1 °F 90% 30.17 in 10.0 mi Calm Calm - N/A   Scattered Clouds
9:15 PM 69.4 °F 67.1 °F 92% 30.18 in 10.0 mi Calm Calm - N/A   Clear
9:35 PM 68.7 °F 66.7 °F 93% 30.20 in 10.0 mi Calm Calm - N/A   Clear
9:55 PM 67.5 °F 66.4 °F 96% 30.20 in 10.0 mi Calm Calm - N/A   Clear
10:15 PM 67.3 °F 66.4 °F 97% 30.20 in 10.0 mi Calm Calm - N/A   Clear
10:35 PM 67.1 °F 66.2 °F 97% 30.20 in 10.0 mi Calm Calm - N/A   Clear
10:55 PM 66.9 °F 65.7 °F 96% 30.21 in 10.0 mi Calm Calm - N/A   Clear
11:15 PM 66.4 °F 65.3 °F 96% 30.20 in 10.0 mi Calm Calm - N/A   Clear
11:35 PM 65.7 °F 65.3 °F 99% 30.21 in 10.0 mi Calm Calm - N/A   Clear
11:55 PM 65.5 °F 64.8 °F 98% 30.21 in 10.0 mi Calm Calm - N/A   Clear